Location: Lahitte
(43.6596°N, 0.6805°E)
Time: 20:23:47
(UTC+00:00)

Cosmos 1470 - Pass Details

Date: 15 May 2026
Orbit: 420 x 431 km, 82.5° (Epoch: 6 June)

Event Time Altitude Azimuth Distance (km) Brightness Sun altitude
Rises 22:45:30 0° 355° (N) 2,383 7.3 -25.4°
Reaches altitude 10° 22:47:35 10° 359° (N) 1,513 6.0 -25.5°
Enters shadow 22:49:18 27° 11° (N) 839 4.3 -25.6°
